Location: Melara
(45.0500°N, 11.1833°E)
Time: 22:07:13
(UTC+00:00)

Cosmos 2341 Rocket - Pass Details

Date: 26 May 2022
Orbit: 969 x 1003 km, 82.9° (Epoch: 04 July)

Event Time Altitude Azimuth Distance (km) Brightness Sun altitude
Rises 02:38:18 0° 347° (NNW) 3,735 7.5 -8.9°
Reaches altitude 10° 02:40:52 10° 344° (NNW) 2,783 6.7 -8.6°
Maximum altitude 02:47:06 56° 268° (W) 1,183 4.2 -7.8°
Drops below altitude 10° 02:53:17 10° 192° (SSW) 2,768 5.9 -6.9°
Sets 02:55:51 0° 188° (S) 3,712 6.6 -6.6°
